Content
SEND FEEDBACK

Daily
Averages
Monthly
Summary
United States of America

TAMUNING, GUAM


Home > North America > United States > Guam
Elevation: 250 feet     Latitude: 13 29N     Longitude: 144 47E

WEATHER
 
SELECT A DAY
Number of Records: 341,524;   Date Range: 1/1/95 - 7/7/14
 
SHARE

PRINT THIS DATA

[ ← Previous Day ]
WEATHER ALMANAC - JULY 14, 2013
[ Next Day → ]
[ °C ]   °F
Weather ElementAverageHighLow
Temperature82.6 °F87.8 °F (11:36 am)78.8 °F (2:20 am)
Dewpoint76.3 °F80.6 °F (12:13 pm)68 °F (10:43 pm)
Humidity81.6 %89 % (2:20 am)65 % (10:43 pm)
Barometer29.79 in29.83 in (12:46 am)29.74 in (3:37 pm)
Wind Speed13 mph19.6 mph (2:38 pm)
Wind Gust25.3 mph (12:01 pm)
Weather ElementAverage
Visibility9.8 mi
Wind DirectionENE (64.7 °)

Weather ElementTotal
Precipitation0.02 in
Cooling Degree Days18.3 (Base 65)
Growing Degree Days33.3 (Base 50)
Averaged from 79 records on July 14, 2013
WEATHER CONDITIONS BREAKOUT
WIND DIRECTION BREAKOUT
WEATHER BY HOUR - JULY 14, 2013
[ °C ]   °F
Local TimeTemperatureDewpointHumidityBarometerVisibilityWind DirectionWind SpeedGust SpeedPrecipitationEventsConditions
12:46 AM80.6 °F75.2 °F84 %29.83 in10.0 miENE (60°)12.7 mphScattered Clouds
12:55 AM80.1 °F75.6 °F86 %29.83 in10.0 miENE (60°)10.4 mphScattered Clouds
1:08 AM80.6 °F75.2 °F84 %29.83 in10.0 miENE (60°)11.5 mphMostly Cloudy
1:29 AM80.6 °F75.2 °F84 %29.81 in10.0 miENE (70°)9.2 mphScattered Clouds
1:55 AM79.7 °F75.6 °F87 %29.81 in10.0 miENE (60°)10.4 mphScattered Clouds
2:20 AM78.8 °F75.2 °F89 %29.81 in10.0 miENE (60°)9.2 mphMostly Cloudy
2:24 AM78.8 °F75.2 °F89 %29.81 in10.0 miENE (60°)12.7 mphScattered Clouds
2:33 AM80.6 °F75.2 °F84 %29.81 in10.0 miENE (60°)11.5 mphMostly Cloudy
2:36 AM80.6 °F75.2 °F84 %29.81 in10.0 miENE (60°)12.7 mphScattered Clouds
2:55 AM79.7 °F75.2 °F86 %29.80 in10.0 miENE (70°)11.5 mphPartly Cloudy
3:24 AM80.6 °F75.2 °F84 %29.80 in10.0 miENE (60°)11.5 mphMostly Cloudy
3:34 AM80.6 °F75.2 °F84 %29.80 in10.0 miENE (60°)10.4 mphScattered Clouds
3:39 AM80.6 °F75.2 °F84 %29.80 in10.0 miENE (60°)11.5 mphMostly Cloudy
3:55 AM80.2 °F75.7 °F86 %29.80 in10.0 miENE (60°)10.4 mphMostly Cloudy
4:08 AM80.6 °F75.2 °F84 %29.79 in10.0 miENE (60°)11.5 mphScattered Clouds
4:55 AM80.6 °F74.7 °F82 %29.80 in10.0 miENE (60°)12.7 mphScattered Clouds
5:55 AM80.4 °F75.4 °F85 %29.81 in10.0 miENE (60°)12.7 mphPartly Cloudy
6:55 AM81.3 °F75.4 °F82 %29.81 in10.0 miNE (50°)15.0 mphPartly Cloudy
7:06 AM82.4 °F77.0 °F84 %29.82 in10.0 miNE (50°)11.5 mphRainLight Rain
7:09 AM82.4 °F77.0 °F84 %29.82 in10.0 miNE (50°)13.8 mphLight Drizzle
7:12 AM82.4 °F77.0 °F84 %29.82 in10.0 miENE (60°)16.1 mphLight Drizzle
7:16 AM82.4 °F75.2 °F79 %29.82 in10.0 miENE (60°)16.1 mphScattered Clouds
7:55 AM83.3 °F77.0 °F81 %29.82 in10.0 miENE (60°)12.7 mph0.00 inPartly Cloudy
8:35 AM84.2 °F77.0 °F79 %29.82 in10.0 miENE (70°)13.8 mphMostly Cloudy
8:42 AM84.2 °F78.8 °F84 %29.82 in10.0 miENE (70°)13.8 mphScattered Clouds
8:54 AM84.2 °F78.8 °F84 %29.82 in10.0 miENE (70°)15.0 mphMostly Cloudy
8:55 AM84.2 °F78.1 °F82 %29.82 in10.0 miENE (70°)16.1 mphMostly Cloudy
8:57 AM84.2 °F77.0 °F79 %29.82 in10.0 miEast (80°)16.1 mphScattered Clouds
9:55 AM86.0 °F77.7 °F76 %29.82 in10.0 miENE (70°)15.0 mphPartly Cloudy
10:55 AM85.5 °F77.7 °F78 %29.81 in10.0 miEast (80°)13.8 mphPartly Cloudy
11:24 AM86.0 °F78.8 °F79 %29.80 in10.0 miENE (60°)15.0 mphMostly Cloudy
11:36 AM87.8 °F78.8 °F75 %29.80 in10.0 miENE (70°)17.3 mphScattered Clouds
11:45 AM86.0 °F78.8 °F79 %29.79 in10.0 miENE (60°)16.1 mphMostly Cloudy
11:55 AM86.9 °F79.3 °F78 %29.79 in10.0 miENE (70°)17.3 mphMostly Cloudy
12:01 PM86.0 °F78.8 °F79 %29.79 in7.0 miEast (80°)18.4 mph25.3 mphDrizzle
12:13 PM84.2 °F80.6 °F89 %29.78 in10.0 miENE (70°)11.5 mphRainLight Rain
12:14 PM84.2 °F80.6 °F89 %29.78 in10.0 miEast (80°)12.7 mphMostly Cloudy
12:55 PM86.5 °F80.2 °F81 %29.78 in10.0 miENE (70°)16.1 mph0.01 inPartly Cloudy
1:15 PM86.0 °F78.8 °F79 %29.77 in10.0 miEast (80°)15.0 mphMostly Cloudy
1:27 PM86.0 °F78.8 °F79 %29.77 in10.0 miENE (60°)18.4 mphScattered Clouds
1:55 PM86.9 °F78.6 °F76 %29.75 in10.0 miEast (80°)15.0 mphPartly Cloudy
2:35 PM86.0 °F80.6 °F84 %29.75 in10.0 miENE (60°)16.1 mphMostly Cloudy
2:38 PM86.0 °F80.6 °F84 %29.75 in7.0 miENE (70°)19.6 mphRainLight Rain
2:45 PM82.4 °F78.8 °F89 %29.75 in5.0 miENE (60°)15.0 mphRainLight Rain
2:50 PM82.4 °F78.8 °F89 %29.75 in10.0 miENE (60°)11.5 mphScattered Clouds
2:55 PM83.7 °F79.7 °F88 %29.75 in10.0 miENE (70°)12.7 mph0.00 inPartly Cloudy
3:37 PM84.2 °F78.8 °F84 %29.74 in10.0 miENE (60°)13.8 mphMostly Cloudy
3:43 PM84.2 °F78.8 °F84 %29.74 in10.0 miENE (70°)13.8 mphScattered Clouds
3:55 PM85.6 °F78.8 °F80 %29.75 in10.0 miENE (60°)16.1 mph20.7 mphScattered Clouds
3:56 PM86.0 °F78.8 °F79 %29.75 in10.0 miENE (60°)15.0 mph20.7 mphMostly Cloudy
3:57 PM86.0 °F78.8 °F79 %29.75 in10.0 miENE (70°)12.7 mph20.7 mphScattered Clouds
4:00 PM86.0 °F78.8 °F79 %29.75 in10.0 miENE (70°)12.7 mph20.7 mphMostly Cloudy
4:02 PM86.0 °F78.8 °F79 %29.75 in10.0 miENE (70°)13.8 mph20.7 mphScattered Clouds
4:55 PM84.4 °F76.5 °F77 %29.74 in10.0 miENE (70°)15.0 mphPartly Cloudy
5:31 PM84.2 °F77.0 °F79 %29.75 in10.0 miENE (60°)12.7 mphMostly Cloudy
5:55 PM83.3 °F77.2 °F82 %29.75 in10.0 miENE (60°)11.5 mphMostly Cloudy
6:16 PM82.4 °F78.8 °F89 %29.75 in10.0 miNE (50°)11.5 mphScattered Clouds
6:31 PM82.4 °F77.0 °F84 %29.75 in10.0 miENE (60°)11.5 mphMostly Cloudy
6:42 PM82.4 °F78.8 °F89 %29.76 in10.0 miENE (60°)10.4 mphScattered Clouds
6:44 PM82.4 °F77.0 °F84 %29.76 in10.0 miENE (60°)11.5 mphMostly Cloudy
6:55 PM82.0 °F77.2 °F85 %29.76 in10.0 miENE (60°)11.5 mphMostly Cloudy
6:57 PM82.4 °F77.0 °F84 %29.76 in10.0 miENE (60°)11.5 mphScattered Clouds
7:45 PM80.6 °F77.0 °F89 %29.78 in9.0 miNE (50°)15.0 mphLight Drizzle
7:46 PM80.6 °F77.0 °F89 %29.78 in8.0 miNE (50°)13.8 mphLight Drizzle
7:51 PM80.6 °F77.0 °F89 %29.78 in7.0 miENE (60°)10.4 mphRainRain
7:55 PM79.9 °F76.5 °F89 %29.78 in8.0 miENE (60°)10.4 mph0.01 inRainLight Rain
7:57 PM80.6 °F77.0 °F89 %29.78 in10.0 miENE (70°)8.1 mphScattered Clouds
8:55 PM79.9 °F72.3 °F78 %29.80 in10.0 miENE (70°)10.4 mph0.00 inPartly Cloudy
9:55 PM79.9 °F69.4 °F70 %29.81 in10.0 miEast (80°)8.1 mphPartly Cloudy
10:43 PM80.6 °F68.0 °F65 %29.82 in10.0 miENE (70°)10.4 mphMostly Cloudy
10:55 PM80.2 °F69.1 °F69 %29.82 in10.0 miENE (70°)12.7 mphMostly Cloudy
11:01 PM80.6 °F69.8 °F70 %29.82 in10.0 miENE (70°)11.5 mphScattered Clouds
11:02 PM80.6 °F69.8 °F70 %29.82 in10.0 miENE (70°)11.5 mphMostly Cloudy
11:15 PM80.6 °F71.6 °F74 %29.81 in10.0 miENE (60°)13.8 mph18.4 mphRainLight Rain
11:16 PM80.6 °F71.6 °F74 %29.81 in10.0 miENE (60°)13.8 mph18.4 mphRainLight Rain
11:18 PM80.6 °F71.6 °F74 %29.81 in10.0 miENE (60°)11.5 mphRainLight Rain
11:24 PM78.8 °F69.8 °F74 %29.81 in10.0 miENE (60°)10.4 mphMostly Cloudy
11:25 PM78.8 °F69.8 °F74 %29.81 in10.0 miENE (60°)11.5 mphMostly Cloudy
11:55 PM78.8 °F69.6 °F73 %29.81 in10.0 miESE (110°)8.1 mph0.00 inPartly Cloudy
Hourly data recorded from PGUA, located miles away from Tamuning, Guam







STORIES FROM OUR PARTNERS